QF69 YMHB-YMHB

Flight info

Callsign QF69
Flight time N/A
Altitude 18000
Route 4409S14547E 4409S14518E 4354S14419E 4357S14309E 4419S14203E 4445S14121E 4526S14059E 4560S14127E 4628S14232E 4638S14333E 5016S13741E 5125S13944E 5146S14039E
Aircraft A343/H-SDE2E3FGHIJ4J5M1RWXY/LB1D1

Departure

Time 2026-05-06 06:50
Airport Hobart International Airport (YMHB)

Arrival

Time N/A
Airport Hobart International Airport (YMHB)
Time Latitude Longitude Altitude Speed Heading
2026-05-06 06:34 -42.83602 147.50489 22 ft 0 kts 134°
2026-05-06 06:37 -42.83602 147.50490 22 ft 1 kts 133°
2026-05-06 06:37 -42.83596 147.50513 22 ft 6 kts 60°
2026-05-06 06:37 -42.83519 147.50550 22 ft 18 kts 359°
2026-05-06 06:38 -42.83376 147.50475 25 ft 27 kts 338°
2026-05-06 06:38 -42.83301 147.50433 26 ft 0 kts 338°
2026-05-06 06:47 -42.83286 147.50424 26 ft 6 kts 336°
2026-05-06 06:47 -42.83166 147.50335 26 ft 32 kts 326°
2026-05-06 06:48 -42.82966 147.50120 27 ft 42 kts 320°
2026-05-06 06:48 -42.82826 147.50107 27 ft 0 kts 60°
2026-05-06 06:48 -42.82817 147.50128 25 ft 0 kts 60°
2026-05-06 06:48 -42.82886 147.50049 27 ft 0 kts 60°
2026-05-06 06:49 -42.82874 147.50079 27 ft 14 kts 60°
2026-05-06 06:49 -42.82862 147.50108 28 ft 2 kts 64°
2026-05-06 06:49 -42.82900 147.50207 29 ft 23 kts 135°
2026-05-06 06:49 -42.83116 147.50498 24 ft 68 kts 135°
2026-05-06 06:50 -42.83572 147.51117 30 ft 114 kts 135°
2026-05-06 06:50 -42.84229 147.52010 51 ft 149 kts 133°
2026-05-06 06:50 -42.84959 147.53082 364 ft 161 kts 136°
2026-05-06 06:50 -42.85795 147.54254 648 ft 184 kts 137°
2026-05-06 06:51 -42.86739 147.55541 1062 ft 203 kts 138°
2026-05-06 06:51 -42.87811 147.57004 1346 ft 232 kts 139°
2026-05-06 06:51 -42.89001 147.58641 1881 ft 249 kts 139°
2026-05-06 06:51 -42.90223 147.60343 2766 ft 255 kts 139°
2026-05-06 06:52 -42.91493 147.62113 3441 ft 266 kts 137°
2026-05-06 06:52 -42.92667 147.64139 4078 ft 280 kts 117°
2026-05-06 06:52 -42.93028 147.66744 4903 ft 284 kts 84°
2026-05-06 06:52 -42.92709 147.69366 5709 ft 285 kts 70°
2026-05-06 06:53 -42.91849 147.71755 6524 ft 279 kts 46°
2026-05-06 06:53 -42.90382 147.73406 7259 ft 272 kts 20°
2026-05-06 06:53 -42.88649 147.74412 8005 ft 270 kts 13°
2026-05-06 06:53 -42.86848 147.74983 8872 ft 262 kts 356°
2026-05-06 06:54 -42.85046 147.74898 9742 ft 258 kts 348°
2026-05-06 06:54 -42.83233 147.74647 10256 ft 269 kts 348°
2026-05-06 06:54 -42.81307 147.74364 10535 ft 287 kts 348°
2026-05-06 06:54 -42.79257 147.74077 10750 ft 305 kts 349°
2026-05-06 06:55 -42.77085 147.73788 11020 ft 321 kts 350°
2026-05-06 06:55 -42.74820 147.73495 11440 ft 332 kts 350°
2026-05-06 06:55 -42.72531 147.73205 12044 ft 336 kts 350°
2026-05-06 06:55 -42.70235 147.72684 12724 ft 334 kts 340°
2026-05-06 06:56 -42.68064 147.71583 13424 ft 333 kts 333°
2026-05-06 06:56 -42.65931 147.70312 14084 ft 335 kts 333°
2026-05-06 06:56 -42.63801 147.69027 14819 ft 335 kts 333°
2026-05-06 06:56 -42.61672 147.67751 15538 ft 335 kts 333°
2026-05-06 06:57 -42.59570 147.66395 16237 ft 334 kts 329°
2026-05-06 06:57 -42.57532 147.64854 16901 ft 335 kts 328°
2026-05-06 06:57 -42.55492 147.63302 17524 ft 338 kts 329°
2026-05-06 06:57 -42.53416 147.61742 17782 ft 344 kts 329°
2026-05-06 06:58 -42.51276 147.60157 17813 ft 354 kts 329°
2026-05-06 06:58 -42.49098 147.58554 17832 ft 356 kts 329°
2026-05-06 06:58 -42.46918 147.56955 17827 ft 356 kts 329°
2026-05-06 06:58 -42.45475 147.55898 17829 ft 356 kts 329°
2026-05-06 06:59 -42.43295 147.54305 17826 ft 355 kts 329°
2026-05-06 06:59 -42.40430 147.52215 17819 ft 352 kts 329°
2026-05-06 06:59 -42.38975 147.51154 17830 ft 352 kts 329°
2026-05-06 06:59 -42.36122 147.49074 17844 ft 352 kts 329°
2026-05-06 07:00 -42.34668 147.48016 17848 ft 352 kts 329°
2026-05-06 07:00 -42.32517 147.46446 17830 ft 352 kts 329°
2026-05-06 07:00 -42.30363 147.44881 17839 ft 351 kts 329°
2026-05-06 07:00 -42.28235 147.43336 17805 ft 351 kts 329°
2026-05-06 07:01 -42.26102 147.41712 17833 ft 353 kts 325°
2026-05-06 07:01 -42.24202 147.39605 17828 ft 354 kts 313°
2026-05-06 07:01 -42.22776 147.36893 17838 ft 356 kts 299°
2026-05-06 07:01 -42.21940 147.33726 17839 ft 362 kts 285°
2026-05-06 07:02 -42.21771 147.30313 17834 ft 371 kts 271°
2026-05-06 07:02 -42.22329 147.26861 17848 ft 384 kts 256°
2026-05-06 07:02 -42.23644 147.23650 17860 ft 401 kts 240°
2026-05-06 07:02 -42.25701 147.21005 17857 ft 420 kts 222°
2026-05-06 07:03 -42.28394 147.19270 17847 ft 439 kts 203°
2026-05-06 07:03 -42.31394 147.18514 17848 ft 448 kts 194°
2026-05-06 07:03 -42.34504 147.18029 17848 ft 449 kts 193°
2026-05-06 07:03 -42.37528 147.17190 17845 ft 438 kts 207°
2026-05-06 07:04 -42.40212 147.15399 17887 ft 424 kts 219°
2026-05-06 07:04 -42.42664 147.13202 17856 ft 420 kts 224°
2026-05-06 07:04 -42.44991 147.10826 17856 ft 418 kts 227°
2026-05-06 07:04 -42.47270 147.08377 17861 ft 418 kts 227°
2026-05-06 07:05 -42.49538 147.05921 17858 ft 418 kts 227°
2026-05-06 07:05 -42.51793 147.03505 17853 ft 418 kts 227°
2026-05-06 07:05 -42.54091 147.01077 17864 ft 419 kts 226°
2026-05-06 07:05 -42.56402 146.98672 17893 ft 420 kts 226°
2026-05-06 07:06 -42.58732 146.96270 17865 ft 420 kts 226°
2026-05-06 07:06 -42.61059 146.93878 17869 ft 420 kts 226°
2026-05-06 07:06 -42.63388 146.91483 17869 ft 420 kts 226°
2026-05-06 07:06 -42.65722 146.89082 17872 ft 420 kts 226°
2026-05-06 07:07 -42.68052 146.86680 17873 ft 420 kts 226°
2026-05-06 07:07 -42.70383 146.84275 17870 ft 420 kts 226°
2026-05-06 07:07 -42.72715 146.81866 17886 ft 420 kts 226°
2026-05-06 07:07 -42.75038 146.79459 17874 ft 420 kts 226°
2026-05-06 07:08 -42.77360 146.77051 17877 ft 420 kts 226°
2026-05-06 07:08 -42.79685 146.74637 17877 ft 420 kts 226°
2026-05-06 07:08 -42.82006 146.72223 17880 ft 419 kts 226°
2026-05-06 07:08 -42.84288 146.69844 17884 ft 419 kts 226°
2026-05-06 07:09 -42.86610 146.67423 17869 ft 419 kts 226°
2026-05-06 07:09 -42.88932 146.65006 17883 ft 419 kts 227°
2026-05-06 07:09 -42.91246 146.62597 17880 ft 418 kts 227°
2026-05-06 07:09 -42.93552 146.60188 17877 ft 418 kts 227°
2026-05-06 07:10 -42.95861 146.57775 17883 ft 418 kts 227°
2026-05-06 07:10 -42.98173 146.55359 17889 ft 418 kts 227°
2026-05-06 07:10 -43.00480 146.52945 17883 ft 418 kts 227°
2026-05-06 07:10 -43.02786 146.50529 17879 ft 418 kts 227°
2026-05-06 07:11 -43.05093 146.48108 17886 ft 417 kts 227°
2026-05-06 07:11 -43.07392 146.45694 17880 ft 415 kts 227°
2026-05-06 07:11 -43.09684 146.43290 17884 ft 416 kts 227°
2026-05-06 07:11 -43.11975 146.40889 17884 ft 415 kts 227°
2026-05-06 07:12 -43.14268 146.38477 17885 ft 415 kts 227°
2026-05-06 07:12 -43.16557 146.36063 17879 ft 415 kts 227°
2026-05-06 07:12 -43.18854 146.33643 17881 ft 416 kts 227°
2026-05-06 07:12 -43.21147 146.31223 17889 ft 416 kts 227°
2026-05-06 07:13 -43.23408 146.28830 17886 ft 417 kts 227°
2026-05-06 07:13 -43.25706 146.26389 17888 ft 417 kts 227°
2026-05-06 07:13 -43.28002 146.23952 17888 ft 417 kts 227°
2026-05-06 07:13 -43.30299 146.21515 17879 ft 417 kts 227°
2026-05-06 07:14 -43.32594 146.19077 17876 ft 417 kts 227°
2026-05-06 07:14 -43.34892 146.16636 17911 ft 417 kts 227°
2026-05-06 07:14 -43.37192 146.14190 17882 ft 419 kts 227°
2026-05-06 07:14 -43.39499 146.11733 17878 ft 420 kts 227°
2026-05-06 07:15 -43.41808 146.09273 17876 ft 421 kts 227°
2026-05-06 07:15 -43.44095 146.06844 17881 ft 421 kts 227°
2026-05-06 07:15 -43.46413 146.04367 17877 ft 421 kts 227°
2026-05-06 07:15 -43.48721 146.01890 17867 ft 420 kts 227°
2026-05-06 07:16 -43.51025 145.99410 17871 ft 420 kts 227°
2026-05-06 07:16 -43.53335 145.96937 17873 ft 421 kts 227°
2026-05-06 07:16 -43.55648 145.94465 17860 ft 421 kts 227°
2026-05-06 07:16 -43.57961 145.91992 17867 ft 421 kts 227°
2026-05-06 07:17 -43.60270 145.89518 17862 ft 421 kts 227°
2026-05-06 07:17 -43.62582 145.87037 17862 ft 420 kts 227°
2026-05-06 07:17 -43.64892 145.84553 17864 ft 420 kts 227°
2026-05-06 07:17 -43.67200 145.82067 17893 ft 421 kts 227°
2026-05-06 07:18 -43.69509 145.79576 17864 ft 422 kts 227°
2026-05-06 07:18 -43.71830 145.77069 17862 ft 423 kts 227°
2026-05-06 07:18 -43.74152 145.74560 17858 ft 423 kts 227°
2026-05-06 07:18 -43.76443 145.72083 17859 ft 423 kts 227°
2026-05-06 07:19 -43.78760 145.69576 17859 ft 423 kts 227°
2026-05-06 07:19 -43.81079 145.67064 17855 ft 423 kts 227°
2026-05-06 07:19 -43.83399 145.64548 17885 ft 423 kts 228°
2026-05-06 07:19 -43.85721 145.62027 17860 ft 423 kts 228°
2026-05-06 07:20 -43.88041 145.59505 17854 ft 424 kts 228°
2026-05-06 07:20 -43.90361 145.56981 17857 ft 424 kts 228°
2026-05-06 07:20 -43.92681 145.54455 17856 ft 423 kts 228°
2026-05-06 07:20 -43.95005 145.51922 17847 ft 423 kts 228°
2026-05-06 07:21 -43.97319 145.49396 17857 ft 423 kts 228°
2026-05-06 07:21 -43.99633 145.46868 17888 ft 423 kts 228°
2026-05-06 07:21 -44.01917 145.44371 17851 ft 423 kts 228°
2026-05-06 07:21 -44.04229 145.41840 17851 ft 422 kts 228°
2026-05-06 07:22 -44.06538 145.39311 17848 ft 422 kts 228°
2026-05-06 07:22 -44.08845 145.36776 17847 ft 421 kts 228°
2026-05-06 07:22 -44.10922 145.33992 17856 ft 407 kts 240°
2026-05-06 07:22 -44.12421 145.30769 17853 ft 388 kts 255°
2026-05-06 07:23 -44.13199 145.27275 17851 ft 370 kts 270°
2026-05-06 07:23 -44.13240 145.23785 17851 ft 355 kts 285°
2026-05-06 07:23 -44.12723 145.20450 17878 ft 350 kts 291°
2026-05-06 07:23 -44.12013 145.17266 17850 ft 348 kts 294°
2026-05-06 07:24 -44.11199 145.14093 17853 ft 348 kts 295°
2026-05-06 07:24 -44.10352 145.10934 17853 ft 348 kts 296°
2026-05-06 07:24 -44.09507 145.07771 17850 ft 348 kts 295°
2026-05-06 07:24 -44.08678 145.04601 17853 ft 348 kts 295°
2026-05-06 07:25 -44.07858 145.01434 17857 ft 348 kts 295°
2026-05-06 07:25 -44.07043 144.98254 17856 ft 349 kts 295°
2026-05-06 07:25 -44.06235 144.95076 17856 ft 349 kts 295°
2026-05-06 07:25 -44.05427 144.91888 17856 ft 349 kts 295°
2026-05-06 07:26 -44.04623 144.88708 17858 ft 349 kts 295°
2026-05-06 07:26 -44.03828 144.85567 17862 ft 349 kts 295°
2026-05-06 07:26 -44.03021 144.82385 17862 ft 349 kts 295°
2026-05-06 07:26 -44.02214 144.79208 17862 ft 349 kts 295°
2026-05-06 07:27 -44.01406 144.76030 17862 ft 349 kts 295°
2026-05-06 07:27 -44.00598 144.72843 17857 ft 349 kts 295°
2026-05-06 07:27 -43.99790 144.69657 17859 ft 349 kts 295°
2026-05-06 07:27 -43.98976 144.66475 17859 ft 349 kts 295°
2026-05-06 07:28 -43.98161 144.63302 17862 ft 349 kts 295°
2026-05-06 07:28 -43.97353 144.60165 17866 ft 350 kts 294°
2026-05-06 07:28 -43.95707 144.53772 17864 ft 352 kts 294°
2026-05-06 07:29 -43.94881 144.50565 17869 ft 352 kts 294°
2026-05-06 07:29 -43.94056 144.47364 17867 ft 352 kts 294°
2026-05-06 07:29 -43.93231 144.44163 17867 ft 352 kts 294°
2026-05-06 07:29 -43.92417 144.41013 17867 ft 352 kts 294°
2026-05-06 07:30 -43.91590 144.37816 17870 ft 352 kts 294°
2026-05-06 07:30 -43.90784 144.34606 17871 ft 353 kts 291°
2026-05-06 07:30 -43.90290 144.31232 17872 ft 360 kts 282°
2026-05-06 07:30 -43.90192 144.27739 17891 ft 364 kts 277°
2026-05-06 07:31 -43.90253 144.24209 17874 ft 367 kts 273°
2026-05-06 07:31 -43.90406 144.20665 17871 ft 369 kts 272°
2026-05-06 07:31 -43.90599 144.17119 17878 ft 369 kts 271°
2026-05-06 07:31 -43.90797 144.13617 17880 ft 369 kts 271°
2026-05-06 07:32 -43.90991 144.10067 17877 ft 369 kts 272°
2026-05-06 07:32 -43.91174 144.06513 17878 ft 369 kts 272°
2026-05-06 07:32 -43.91345 144.02966 17880 ft 369 kts 272°
2026-05-06 07:32 -43.91510 143.99415 17880 ft 369 kts 272°
2026-05-06 07:33 -43.91669 143.95868 17897 ft 369 kts 271°
2026-05-06 07:33 -43.91825 143.92299 17891 ft 371 kts 271°
2026-05-06 07:33 -43.91982 143.88730 17876 ft 372 kts 271°
2026-05-06 07:33 -43.92139 143.85150 17887 ft 372 kts 271°
2026-05-06 07:34 -43.92295 143.81571 17881 ft 372 kts 271°
2026-05-06 07:34 -43.92450 143.77993 17887 ft 372 kts 270°
2026-05-06 07:34 -43.92603 143.74398 17897 ft 374 kts 269°
2026-05-06 07:34 -43.92757 143.70791 17895 ft 375 kts 269°
2026-05-06 07:35 -43.92911 143.67185 17882 ft 375 kts 269°
2026-05-06 07:35 -43.93064 143.63573 17884 ft 375 kts 269°
2026-05-06 07:35 -43.93217 143.59949 17889 ft 375 kts 269°
2026-05-06 07:35 -43.93368 143.56339 17885 ft 375 kts 269°
2026-05-06 07:36 -43.93515 143.52778 17883 ft 375 kts 269°
2026-05-06 07:36 -43.93663 143.49161 17888 ft 375 kts 269°
2026-05-06 07:36 -43.93809 143.45546 17885 ft 375 kts 269°
2026-05-06 07:36 -43.93955 143.41931 17908 ft 375 kts 269°
2026-05-06 07:37 -43.94099 143.38305 17895 ft 376 kts 268°
2026-05-06 07:37 -43.94243 143.34673 17896 ft 377 kts 268°
2026-05-06 07:37 -43.94386 143.31033 17899 ft 378 kts 268°
2026-05-06 07:37 -43.94527 143.27394 17890 ft 378 kts 268°
2026-05-06 07:38 -43.94668 143.23750 17894 ft 377 kts 268°
2026-05-06 07:38 -43.94808 143.20115 17899 ft 376 kts 268°
2026-05-06 07:38 -43.95077 143.16500 17898 ft 378 kts 260°
2026-05-06 07:38 -43.95811 143.12991 17901 ft 380 kts 251°
2026-05-06 07:39 -43.96787 143.09581 17898 ft 380 kts 249°
2026-05-06 07:39 -43.97873 143.06222 17897 ft 381 kts 247°
2026-05-06 07:39 -43.98996 143.02937 17897 ft 381 kts 246°
2026-05-06 07:39 -44.00152 142.99620 17901 ft 381 kts 246°
2026-05-06 07:40 -44.01310 142.96293 17907 ft 380 kts 246°
2026-05-06 07:40 -44.02450 142.92989 17908 ft 379 kts 246°
2026-05-06 07:40 -44.03582 142.89672 17899 ft 379 kts 246°
2026-05-06 07:40 -44.04704 142.86357 17911 ft 379 kts 246°
2026-05-06 07:41 -44.05821 142.83042 17909 ft 379 kts 247°
2026-05-06 07:41 -44.06921 142.79763 17909 ft 378 kts 246°
2026-05-06 07:41 -44.08037 142.76433 17909 ft 379 kts 246°
2026-05-06 07:41 -44.09149 142.73111 17906 ft 378 kts 246°
2026-05-06 07:42 -44.10261 142.69784 17912 ft 380 kts 246°
2026-05-06 07:42 -44.11375 142.66453 17909 ft 379 kts 247°
2026-05-06 07:42 -44.12486 142.63126 17912 ft 379 kts 246°
2026-05-06 07:42 -44.13593 142.59810 17911 ft 377 kts 246°
2026-05-06 07:43 -44.14696 142.56497 17908 ft 378 kts 246°
2026-05-06 07:43 -44.15801 142.53175 17906 ft 377 kts 246°
2026-05-06 07:43 -44.16889 142.49899 17914 ft 378 kts 246°
2026-05-06 07:43 -44.17992 142.46577 17913 ft 377 kts 246°
2026-05-06 07:44 -44.19090 142.43266 17920 ft 376 kts 246°
2026-05-06 07:44 -44.20187 142.39952 17920 ft 376 kts 246°
2026-05-06 07:44 -44.21280 142.36649 17925 ft 375 kts 246°
2026-05-06 07:44 -44.22374 142.33336 17922 ft 376 kts 246°
2026-05-06 07:45 -44.23465 142.30026 17917 ft 374 kts 246°
2026-05-06 07:45 -44.24553 142.26719 17913 ft 376 kts 247°
2026-05-06 07:45 -44.25643 142.23408 17913 ft 374 kts 246°
2026-05-06 07:45 -44.26728 142.20106 17920 ft 375 kts 246°
2026-05-06 07:46 -44.27814 142.16799 17919 ft 374 kts 246°
2026-05-06 07:46 -44.28882 142.13536 17921 ft 375 kts 247°
2026-05-06 07:46 -44.29966 142.10225 17924 ft 374 kts 246°
2026-05-06 07:46 -44.31086 142.06935 17931 ft 376 kts 243°
2026-05-06 07:47 -44.32530 142.03872 17926 ft 377 kts 235°
2026-05-06 07:47 -44.34150 142.00984 17928 ft 379 kts 233°
2026-05-06 07:47 -44.35849 141.98170 17927 ft 378 kts 231°
2026-05-06 07:47 -44.37587 141.95401 17931 ft 379 kts 231°
2026-05-06 07:48 -44.39337 141.92647 17931 ft 378 kts 230°
2026-05-06 07:48 -44.41065 141.89923 17931 ft 379 kts 231°
2026-05-06 07:48 -44.42809 141.87158 17934 ft 379 kts 231°
2026-05-06 07:48 -44.44547 141.84385 17929 ft 378 kts 231°
2026-05-06 07:49 -44.46274 141.81617 17934 ft 378 kts 231°
2026-05-06 07:49 -44.48002 141.78837 17942 ft 378 kts 231°
2026-05-06 07:49 -44.49731 141.76054 17933 ft 378 kts 232°
2026-05-06 07:49 -44.50868 141.74219 17934 ft 377 kts 231°
2026-05-06 07:50 -44.52589 141.71437 17931 ft 377 kts 231°
2026-05-06 07:50 -44.54303 141.68666 17939 ft 377 kts 232°
2026-05-06 07:50 -44.56605 141.64943 17939 ft 377 kts 231°
2026-05-06 07:50 -44.57745 141.63098 17941 ft 378 kts 232°
2026-05-06 07:51 -44.60024 141.59403 17938 ft 378 kts 231°
2026-05-06 07:51 -44.61748 141.56607 17937 ft 377 kts 231°
2026-05-06 07:51 -44.62909 141.54726 17956 ft 377 kts 232°
2026-05-06 07:51 -44.64628 141.51938 17941 ft 376 kts 231°
2026-05-06 07:52 -44.66341 141.49153 17942 ft 377 kts 232°
2026-05-06 07:52 -44.68050 141.46365 17940 ft 376 kts 231°
2026-05-06 07:52 -44.69762 141.43573 17939 ft 377 kts 232°
2026-05-06 07:52 -44.71448 141.40820 17940 ft 376 kts 231°
2026-05-06 07:53 -44.73173 141.38046 17942 ft 376 kts 229°
2026-05-06 07:53 -44.75149 141.35618 17946 ft 381 kts 218°
2026-05-06 07:53 -44.77468 141.33773 17947 ft 384 kts 209°
2026-05-06 07:53 -44.79915 141.32237 17945 ft 386 kts 206°
2026-05-06 07:54 -44.82425 141.30854 17940 ft 387 kts 205°
2026-05-06 07:54 -44.84954 141.29546 17939 ft 387 kts 204°
2026-05-06 07:54 -44.87488 141.28254 17941 ft 387 kts 204°
2026-05-06 07:54 -44.90028 141.26959 17941 ft 388 kts 204°
2026-05-06 07:55 -44.93383 141.25218 17938 ft 387 kts 205°
2026-05-06 07:55 -44.95058 141.24339 17945 ft 386 kts 204°
2026-05-06 07:55 -44.97575 141.23002 17945 ft 386 kts 204°
2026-05-06 07:55 -45.00091 141.21660 17946 ft 386 kts 205°
2026-05-06 07:56 -45.02602 141.20319 17934 ft 386 kts 205°
2026-05-06 07:56 -45.05116 141.18974 17945 ft 385 kts 205°
2026-05-06 07:56 -45.07623 141.17630 17933 ft 386 kts 205°
2026-05-06 07:56 -45.10130 141.16277 17931 ft 386 kts 204°
2026-05-06 07:57 -45.12638 141.14927 17943 ft 386 kts 204°
2026-05-06 07:57 -45.15149 141.13582 17935 ft 385 kts 204°
2026-05-06 07:57 -45.17663 141.12232 17940 ft 386 kts 205°
2026-05-06 07:57 -45.20175 141.10884 17935 ft 385 kts 204°
2026-05-06 07:58 -45.22641 141.09554 17937 ft 382 kts 205°
2026-05-06 07:58 -45.25125 141.08209 17934 ft 381 kts 205°
2026-05-06 07:58 -45.27598 141.06872 17944 ft 381 kts 205°
2026-05-06 07:58 -45.30077 141.05533 17947 ft 380 kts 204°
2026-05-06 07:59 -45.32561 141.04190 17942 ft 381 kts 205°
2026-05-06 07:59 -45.35036 141.02846 17933 ft 381 kts 205°
2026-05-06 07:59 -45.37516 141.01495 17938 ft 381 kts 205°
2026-05-06 07:59 -45.40048 141.00332 17941 ft 385 kts 197°
2026-05-06 08:00 -45.42719 140.99903 17939 ft 390 kts 184°
2026-05-06 08:00 -45.45427 141.00492 17944 ft 398 kts 166°
2026-05-06 08:00 -45.47982 141.01960 17941 ft 404 kts 159°
2026-05-06 08:00 -45.50496 141.03807 17939 ft 407 kts 155°
2026-05-06 08:01 -45.52955 141.05835 17935 ft 408 kts 154°
2026-05-06 08:01 -45.55391 141.07926 17934 ft 409 kts 153°
2026-05-06 08:01 -45.57827 141.10017 17928 ft 408 kts 154°
2026-05-06 08:01 -45.60276 141.12092 17933 ft 408 kts 154°
2026-05-06 08:02 -45.62723 141.14136 17933 ft 408 kts 154°
2026-05-06 08:02 -45.65184 141.16179 17944 ft 409 kts 155°
2026-05-06 08:02 -45.67656 141.18212 17931 ft 411 kts 154°
2026-05-06 08:02 -45.70147 141.20254 17929 ft 412 kts 154°
2026-05-06 08:03 -45.72632 141.22301 17919 ft 412 kts 154°
2026-05-06 08:03 -45.75111 141.24352 17919 ft 411 kts 154°
2026-05-06 08:03 -45.77585 141.26394 17919 ft 410 kts 154°
2026-05-06 08:03 -45.80056 141.28439 17920 ft 410 kts 155°
2026-05-06 08:04 -45.82494 141.30449 17916 ft 410 kts 154°
2026-05-06 08:04 -45.84964 141.32489 17928 ft 410 kts 155°
2026-05-06 08:04 -45.87443 141.34544 17917 ft 411 kts 154°
2026-05-06 08:04 -45.89920 141.36603 17912 ft 411 kts 154°
2026-05-06 08:05 -45.92400 141.38665 17908 ft 412 kts 154°
2026-05-06 08:05 -45.94879 141.40723 17912 ft 411 kts 155°
2026-05-06 08:05 -45.97355 141.42804 17900 ft 413 kts 152°
2026-05-06 08:05 -45.99632 141.45351 17900 ft 419 kts 139°
2026-05-06 08:06 -46.01533 141.48553 17907 ft 423 kts 131°
2026-05-06 08:06 -46.03246 141.52013 17903 ft 426 kts 127°
2026-05-06 08:06 -46.04854 141.55596 17900 ft 426 kts 125°
2026-05-06 08:06 -46.06407 141.59234 17893 ft 427 kts 124°
2026-05-06 08:07 -46.07945 141.62883 17900 ft 425 kts 123°
2026-05-06 08:07 -46.09480 141.66517 17901 ft 424 kts 124°
2026-05-06 08:07 -46.11024 141.70141 17901 ft 424 kts 124°
2026-05-06 08:07 -46.12582 141.73767 17899 ft 427 kts 124°
2026-05-06 08:08 -46.14155 141.77395 17895 ft 426 kts 125°
2026-05-06 08:08 -46.15729 141.81026 17896 ft 427 kts 125°
2026-05-06 08:08 -46.17304 141.84657 17892 ft 428 kts 125°
2026-05-06 08:08 -46.18885 141.88302 17890 ft 428 kts 125°
2026-05-06 08:09 -46.20457 141.91935 17890 ft 426 kts 125°
2026-05-06 08:09 -46.22010 141.95532 17889 ft 426 kts 124°
2026-05-06 08:09 -46.23578 141.99173 17887 ft 425 kts 124°
2026-05-06 08:09 -46.25133 142.02790 17886 ft 423 kts 124°
2026-05-06 08:10 -46.26687 142.06415 17883 ft 425 kts 125°
2026-05-06 08:10 -46.28251 142.10054 17879 ft 426 kts 124°
2026-05-06 08:10 -46.29814 142.13694 17896 ft 426 kts 124°
2026-05-06 08:10 -46.31379 142.17346 17875 ft 428 kts 124°
2026-05-06 08:11 -46.32947 142.21011 17871 ft 428 kts 124°
2026-05-06 08:11 -46.34512 142.24669 17872 ft 427 kts 124°
2026-05-06 08:11 -46.36077 142.28333 17872 ft 427 kts 124°
2026-05-06 08:11 -46.37640 142.31997 17868 ft 427 kts 124°
2026-05-06 08:12 -46.39196 142.35657 17870 ft 427 kts 124°
2026-05-06 08:12 -46.40726 142.39264 17865 ft 425 kts 124°
2026-05-06 08:12 -46.42271 142.42917 17866 ft 426 kts 124°
2026-05-06 08:12 -46.43824 142.46577 17864 ft 426 kts 124°
2026-05-06 08:13 -46.45371 142.50251 17861 ft 427 kts 123°
2026-05-06 08:13 -46.46620 142.54185 17860 ft 432 kts 111°
2026-05-06 08:13 -46.47547 142.58342 17856 ft 433 kts 108°
2026-05-06 08:13 -46.48334 142.62553 17860 ft 431 kts 105°
2026-05-06 08:14 -46.49044 142.66779 17855 ft 430 kts 104°
2026-05-06 08:14 -46.49723 142.71010 17856 ft 430 kts 104°
2026-05-06 08:14 -46.50396 142.75241 17856 ft 431 kts 104°
2026-05-06 08:14 -46.51077 142.79485 17857 ft 431 kts 104°
2026-05-06 08:15 -46.51767 142.83728 17850 ft 432 kts 104°
2026-05-06 08:15 -46.52464 142.87977 17852 ft 431 kts 104°
2026-05-06 08:15 -46.53151 142.92146 17850 ft 429 kts 104°
2026-05-06 08:15 -46.53846 142.96361 17853 ft 430 kts 104°
2026-05-06 08:16 -46.54543 143.00589 17849 ft 430 kts 104°
2026-05-06 08:16 -46.55239 143.04823 17848 ft 431 kts 104°
2026-05-06 08:16 -46.55935 143.09067 17848 ft 431 kts 104°
2026-05-06 08:16 -46.56626 143.13298 17848 ft 430 kts 104°
2026-05-06 08:17 -46.57316 143.17537 17841 ft 429 kts 104°
2026-05-06 08:17 -46.58004 143.21766 17851 ft 430 kts 104°
2026-05-06 08:17 -46.58690 143.26001 17840 ft 431 kts 104°
2026-05-06 08:17 -46.59376 143.30244 17836 ft 431 kts 104°
2026-05-06 08:18 -46.60061 143.34496 17837 ft 431 kts 104°
2026-05-06 08:18 -46.60742 143.38733 17838 ft 430 kts 104°
2026-05-06 08:18 -46.61486 143.42950 17835 ft 430 kts 109°
2026-05-06 08:18 -46.62735 143.46873 17831 ft 427 kts 124°
2026-05-06 08:19 -46.64647 143.50121 17831 ft 421 kts 143°
2026-05-06 08:19 -46.67107 143.52311 17832 ft 412 kts 162°
2026-05-06 08:19 -46.69861 143.53238 17833 ft 403 kts 181°
2026-05-06 08:19 -46.72580 143.52894 17826 ft 395 kts 198°
2026-05-06 08:20 -46.75086 143.51390 17824 ft 387 kts 215°
2026-05-06 08:20 -46.77143 143.48925 17824 ft 381 kts 231°
2026-05-06 08:20 -46.78611 143.45748 17824 ft 376 kts 247°
2026-05-06 08:20 -46.79554 143.42211 17827 ft 374 kts 253°
2026-05-06 08:21 -46.80297 143.38564 17820 ft 374 kts 256°
2026-05-06 08:21 -46.80944 143.34882 17840 ft 374 kts 257°
2026-05-06 08:21 -46.81616 143.31217 17829 ft 375 kts 252°
2026-05-06 08:21 -46.82704 143.27749 17830 ft 376 kts 240°
2026-05-06 08:22 -46.84257 143.24662 17837 ft 379 kts 233°
2026-05-06 08:22 -46.85988 143.21803 17834 ft 380 kts 229°
2026-05-06 08:22 -46.87836 143.19032 17833 ft 381 kts 228°
2026-05-06 08:22 -46.89730 143.16313 17831 ft 381 kts 227°
2026-05-06 08:23 -46.91639 143.13603 17831 ft 381 kts 227°
2026-05-06 08:23 -46.93537 143.10894 17831 ft 381 kts 227°
2026-05-06 08:23 -46.95422 143.08173 17833 ft 381 kts 228°
2026-05-06 08:23 -46.97276 143.05473 17828 ft 380 kts 228°
2026-05-06 08:24 -46.99144 143.02731 17828 ft 380 kts 228°
2026-05-06 08:24 -47.01014 142.99973 17830 ft 380 kts 228°
2026-05-06 08:24 -47.02874 142.97221 17831 ft 379 kts 228°
2026-05-06 08:24 -47.04731 142.94470 17830 ft 380 kts 228°
2026-05-06 08:25 -47.06586 142.91722 17832 ft 379 kts 228°
2026-05-06 08:25 -47.08445 142.88965 17831 ft 379 kts 228°
2026-05-06 08:25 -47.10301 142.86209 17833 ft 380 kts 228°
2026-05-06 08:25 -47.12161 142.83446 17830 ft 379 kts 228°
2026-05-06 08:26 -47.14014 142.80690 17833 ft 379 kts 229°
2026-05-06 08:26 -47.15868 142.77929 17829 ft 380 kts 229°
2026-05-06 08:26 -47.17698 142.75202 17829 ft 379 kts 228°
2026-05-06 08:26 -47.19558 142.72429 17829 ft 380 kts 229°
2026-05-06 08:27 -47.21414 142.69658 17828 ft 379 kts 228°
2026-05-06 08:27 -47.23270 142.66884 17830 ft 379 kts 228°
2026-05-06 08:27 -47.25121 142.64115 17829 ft 380 kts 229°
2026-05-06 08:27 -47.26975 142.61338 17830 ft 379 kts 228°
2026-05-06 08:28 -47.28826 142.58563 17837 ft 379 kts 228°
2026-05-06 08:28 -47.30673 142.55791 17832 ft 379 kts 228°
2026-05-06 08:28 -47.32519 142.53018 17833 ft 378 kts 228°
2026-05-06 08:28 -47.34360 142.50249 17831 ft 379 kts 229°
2026-05-06 08:29 -47.36204 142.47472 17832 ft 379 kts 229°
2026-05-06 08:29 -47.38025 142.44728 17831 ft 378 kts 229°
2026-05-06 08:29 -47.39870 142.41944 17831 ft 379 kts 229°
2026-05-06 08:29 -47.41706 142.39170 17833 ft 378 kts 229°
2026-05-06 08:30 -47.43540 142.36395 17834 ft 375 kts 229°
2026-05-06 08:30 -47.45365 142.33634 17851 ft 374 kts 229°
2026-05-06 08:30 -47.47180 142.30883 17837 ft 372 kts 229°
2026-05-06 08:30 -47.48987 142.28142 17832 ft 372 kts 229°
2026-05-06 08:31 -47.50790 142.25404 17834 ft 372 kts 229°
2026-05-06 08:31 -47.52594 142.22663 17830 ft 372 kts 229°
2026-05-06 08:31 -47.54401 142.19914 17830 ft 372 kts 229°
2026-05-06 08:31 -47.56181 142.17201 17836 ft 372 kts 228°
2026-05-06 08:32 -47.57985 142.14451 17832 ft 372 kts 229°
2026-05-06 08:32 -47.59787 142.11698 17837 ft 372 kts 229°
2026-05-06 08:32 -47.61586 142.08947 17833 ft 372 kts 228°
2026-05-06 08:32 -47.63389 142.06187 17840 ft 372 kts 229°
2026-05-06 08:33 -47.65185 142.03436 17834 ft 371 kts 229°
2026-05-06 08:33 -47.66980 142.00682 17837 ft 371 kts 229°
2026-05-06 08:33 -47.68775 141.97928 17842 ft 371 kts 229°
2026-05-06 08:33 -47.70569 141.95173 17835 ft 371 kts 228°
2026-05-06 08:34 -47.72363 141.92417 17834 ft 371 kts 229°
2026-05-06 08:34 -47.75947 141.86897 17840 ft 371 kts 228°
2026-05-06 08:34 -47.77737 141.84137 17839 ft 371 kts 229°
2026-05-06 08:35 -47.79524 141.81377 17844 ft 371 kts 229°
2026-05-06 08:35 -47.81313 141.78610 17834 ft 370 kts 229°
2026-05-06 08:35 -47.83096 141.75850 17832 ft 370 kts 229°
2026-05-06 08:35 -47.84877 141.73091 17835 ft 370 kts 229°
2026-05-06 08:36 -47.86057 141.71261 17841 ft 370 kts 229°
2026-05-06 08:36 -47.88444 141.67556 17838 ft 370 kts 229°
2026-05-06 08:36 -47.89625 141.65720 17835 ft 370 kts 229°
2026-05-06 08:36 -47.91404 141.62951 17839 ft 370 kts 229°
2026-05-06 08:37 -47.93760 141.59283 17840 ft 370 kts 229°
2026-05-06 08:37 -47.95541 141.56506 17853 ft 369 kts 228°
2026-05-06 08:37 -47.97316 141.53736 17831 ft 369 kts 228°
2026-05-06 08:37 -47.98492 141.51899 17845 ft 368 kts 228°
2026-05-06 08:38 -48.00261 141.49134 17842 ft 368 kts 228°
2026-05-06 08:38 -48.02031 141.46363 17837 ft 367 kts 228°
2026-05-06 08:38 -48.03799 141.43592 17829 ft 368 kts 229°
2026-05-06 08:38 -48.05560 141.40829 17844 ft 368 kts 229°
2026-05-06 08:39 -48.07327 141.38057 17836 ft 368 kts 229°
2026-05-06 08:39 -48.09091 141.35284 17843 ft 368 kts 229°
2026-05-06 08:39 -48.10859 141.32503 17846 ft 368 kts 229°
2026-05-06 08:39 -48.12620 141.29726 17835 ft 367 kts 228°
2026-05-06 08:40 -48.14373 141.26961 17839 ft 366 kts 228°
2026-05-06 08:40 -48.16105 141.24226 17834 ft 365 kts 228°
2026-05-06 08:40 -48.17858 141.21457 17835 ft 366 kts 228°
2026-05-06 08:40 -48.19607 141.18691 17852 ft 365 kts 228°
2026-05-06 08:41 -48.21354 141.15923 17837 ft 365 kts 228°
2026-05-06 08:41 -48.23102 141.13152 17839 ft 366 kts 228°
2026-05-06 08:41 -48.24857 141.10369 17840 ft 365 kts 228°
2026-05-06 08:41 -48.26603 141.07595 17840 ft 366 kts 228°
2026-05-06 08:42 -48.28348 141.04820 17854 ft 365 kts 227°
2026-05-06 08:42 -48.30069 141.02078 17841 ft 365 kts 227°
2026-05-06 08:42 -48.31812 140.99301 17842 ft 364 kts 227°
2026-05-06 08:42 -48.33553 140.96522 17843 ft 364 kts 227°
2026-05-06 08:43 -48.35293 140.93743 17843 ft 364 kts 227°
2026-05-06 08:43 -48.37026 140.90972 17842 ft 364 kts 227°
2026-05-06 08:43 -48.38763 140.88191 17841 ft 364 kts 227°
2026-05-06 08:43 -48.40497 140.85414 17844 ft 364 kts 227°
2026-05-06 08:44 -48.42230 140.82633 17846 ft 364 kts 227°
2026-05-06 08:44 -48.43963 140.79850 17845 ft 364 kts 227°
2026-05-06 08:44 -48.45692 140.77072 17848 ft 364 kts 227°
2026-05-06 08:44 -48.47399 140.74324 17847 ft 363 kts 227°
2026-05-06 08:45 -48.49123 140.71548 17843 ft 363 kts 227°
2026-05-06 08:45 -48.50845 140.68770 17843 ft 362 kts 227°
2026-05-06 08:45 -48.52568 140.65989 17843 ft 362 kts 227°
2026-05-06 08:45 -48.54291 140.63205 17843 ft 362 kts 227°
2026-05-06 08:46 -48.56013 140.60419 17842 ft 362 kts 227°
2026-05-06 08:46 -48.57731 140.57637 17843 ft 362 kts 227°
2026-05-06 08:46 -48.59449 140.54851 17843 ft 362 kts 227°
2026-05-06 08:46 -48.61167 140.52063 17843 ft 362 kts 227°
2026-05-06 08:47 -48.62861 140.49310 17844 ft 361 kts 227°
2026-05-06 08:47 -48.64571 140.46530 17847 ft 359 kts 227°
2026-05-06 08:47 -48.66273 140.43758 17846 ft 359 kts 227°
2026-05-06 08:47 -48.67970 140.40992 17844 ft 359 kts 227°
2026-05-06 08:48 -48.69672 140.38215 17845 ft 359 kts 227°
2026-05-06 08:48 -48.71366 140.35448 17846 ft 359 kts 227°
2026-05-06 08:48 -48.73061 140.32676 17846 ft 359 kts 227°
2026-05-06 08:48 -48.74756 140.29903 17846 ft 359 kts 227°
2026-05-06 08:49 -48.76453 140.27122 17850 ft 359 kts 227°
2026-05-06 08:49 -48.78122 140.24384 17848 ft 358 kts 227°
2026-05-06 08:49 -48.79816 140.21602 17848 ft 358 kts 227°
2026-05-06 08:49 -48.81511 140.18816 17847 ft 358 kts 227°
2026-05-06 08:50 -48.83203 140.16030 17843 ft 358 kts 227°
2026-05-06 08:50 -48.84896 140.13242 17846 ft 358 kts 227°
2026-05-06 08:50 -48.86585 140.10456 17846 ft 358 kts 227°
2026-05-06 08:50 -48.88275 140.07666 17847 ft 358 kts 227°
2026-05-06 08:51 -48.89961 140.04880 17844 ft 358 kts 227°
2026-05-06 08:51 -48.91648 140.02088 17845 ft 358 kts 227°
2026-05-06 08:51 -48.93335 139.99294 17845 ft 358 kts 227°
2026-05-06 08:51 -48.95020 139.96501 17848 ft 358 kts 227°
2026-05-06 08:52 -48.96676 139.93751 17843 ft 355 kts 226°
2026-05-06 08:52 -48.98342 139.90982 17845 ft 354 kts 226°
2026-05-06 08:52 -49.00000 139.88225 17846 ft 353 kts 226°
2026-05-06 08:52 -49.01657 139.85465 17847 ft 353 kts 226°
2026-05-06 08:53 -49.03315 139.82702 17845 ft 353 kts 226°
2026-05-06 08:53 -49.04973 139.79936 17846 ft 353 kts 226°
2026-05-06 08:53 -49.06630 139.77168 17845 ft 353 kts 226°
2026-05-06 08:53 -49.08291 139.74391 17845 ft 353 kts 226°
2026-05-06 08:54 -49.09946 139.71619 17846 ft 353 kts 226°
2026-05-06 08:54 -49.11601 139.68847 17845 ft 353 kts 226°
2026-05-06 08:54 -49.13252 139.66076 17845 ft 352 kts 226°
2026-05-06 08:54 -49.14895 139.63318 17845 ft 350 kts 226°
2026-05-06 08:55 -49.16536 139.60558 17849 ft 350 kts 226°
2026-05-06 08:55 -49.18169 139.57810 17849 ft 349 kts 226°
2026-05-06 08:55 -49.19804 139.55055 17848 ft 349 kts 226°
2026-05-06 08:55 -49.21439 139.52298 17849 ft 349 kts 226°
2026-05-06 08:56 -49.23069 139.49546 17850 ft 349 kts 226°
2026-05-06 08:56 -49.24680 139.46823 17851 ft 349 kts 226°
2026-05-06 08:56 -49.26312 139.44061 17851 ft 349 kts 226°
2026-05-06 08:56 -49.27945 139.41297 17850 ft 349 kts 226°
2026-05-06 08:57 -49.29581 139.38541 17851 ft 349 kts 225°
2026-05-06 08:57 -49.31249 139.35827 17859 ft 349 kts 226°
2026-05-06 08:57 -49.32879 139.33060 17846 ft 349 kts 227°
2026-05-06 08:57 -49.34495 139.30273 17844 ft 349 kts 227°
2026-05-06 08:58 -49.36089 139.27518 17844 ft 349 kts 227°
2026-05-06 08:58 -49.37703 139.24733 17840 ft 349 kts 227°
2026-05-06 08:58 -49.39322 139.21950 17841 ft 349 kts 226°
2026-05-06 08:58 -49.40941 139.19175 17845 ft 349 kts 226°
2026-05-06 08:59 -49.42568 139.16390 17844 ft 349 kts 226°
2026-05-06 08:59 -49.44188 139.13617 17843 ft 349 kts 226°
2026-05-06 08:59 -49.45810 139.10839 17844 ft 349 kts 226°
2026-05-06 08:59 -49.47426 139.08068 17844 ft 347 kts 226°
2026-05-06 09:00 -49.49014 139.05341 17843 ft 346 kts 226°
2026-05-06 09:00 -49.50618 139.02589 17847 ft 345 kts 226°
2026-05-06 09:00 -49.52222 138.99831 17845 ft 345 kts 226°
2026-05-06 09:00 -49.53819 138.97079 17845 ft 345 kts 226°
2026-05-06 09:01 -49.55416 138.94323 17847 ft 345 kts 226°
2026-05-06 09:01 -49.57012 138.91566 17845 ft 345 kts 226°
2026-05-06 09:01 -49.58610 138.88804 17845 ft 345 kts 226°
2026-05-06 09:01 -49.60206 138.86040 17846 ft 345 kts 226°
2026-05-06 09:02 -49.61800 138.83280 17846 ft 345 kts 226°
2026-05-06 09:02 -49.63397 138.80511 17836 ft 344 kts 225°
2026-05-06 09:02 -49.64986 138.77754 17845 ft 343 kts 225°
2026-05-06 09:02 -49.66568 138.75004 17844 ft 342 kts 225°
2026-05-06 09:03 -49.68148 138.72256 17844 ft 342 kts 225°
2026-05-06 09:03 -49.69728 138.69504 17846 ft 342 kts 225°
2026-05-06 09:03 -49.71289 138.66785 17844 ft 342 kts 225°
2026-05-06 09:03 -49.72865 138.64034 17845 ft 342 kts 225°
2026-05-06 09:04 -49.74439 138.61284 17843 ft 342 kts 225°
2026-05-06 09:04 -49.76020 138.58520 17845 ft 341 kts 225°
2026-05-06 09:04 -49.77592 138.55768 17845 ft 341 kts 225°
2026-05-06 09:04 -49.79167 138.53008 17844 ft 341 kts 225°
2026-05-06 09:05 -49.80716 138.50290 17853 ft 340 kts 224°
2026-05-06 09:05 -49.82278 138.47546 17856 ft 338 kts 224°
2026-05-06 09:05 -49.83831 138.44816 17858 ft 338 kts 224°
2026-05-06 09:05 -49.85382 138.42086 17842 ft 338 kts 224°
2026-05-06 09:06 -49.86933 138.39354 17842 ft 337 kts 224°
2026-05-06 09:06 -49.88483 138.36621 17854 ft 337 kts 224°
2026-05-06 09:06 -49.90032 138.33887 17845 ft 337 kts 224°
2026-05-06 09:06 -49.91584 138.31146 17851 ft 337 kts 224°
2026-05-06 09:07 -49.93132 138.28406 17856 ft 337 kts 224°
2026-05-06 09:07 -49.94679 138.25666 17861 ft 337 kts 224°
2026-05-06 09:07 -49.96226 138.22925 17817 ft 337 kts 224°
2026-05-06 09:07 -49.97766 138.20190 17843 ft 334 kts 223°
2026-05-06 09:08 -49.99289 138.17480 17854 ft 332 kts 223°
2026-05-06 09:08 -50.00804 138.14784 17853 ft 331 kts 223°
2026-05-06 09:08 -50.02298 138.12124 17849 ft 330 kts 223°
2026-05-06 09:08 -50.03812 138.09430 17855 ft 330 kts 223°
2026-05-06 09:09 -50.05321 138.06739 17854 ft 330 kts 223°
2026-05-06 09:09 -50.06831 138.04044 17856 ft 330 kts 223°
2026-05-06 09:09 -50.08340 138.01347 17858 ft 330 kts 223°
2026-05-06 09:09 -50.09849 137.98647 17858 ft 330 kts 223°
2026-05-06 09:10 -50.11359 137.95942 17851 ft 330 kts 223°
2026-05-06 09:10 -50.12865 137.93241 17855 ft 330 kts 223°
2026-05-06 09:10 -50.14368 137.90541 17852 ft 327 kts 222°
2026-05-06 09:10 -50.15850 137.87871 17854 ft 324 kts 222°
2026-05-06 09:11 -50.17320 137.85223 17858 ft 323 kts 222°
2026-05-06 09:11 -50.18790 137.82576 17857 ft 322 kts 222°
2026-05-06 09:11 -50.20261 137.79928 17856 ft 322 kts 222°
2026-05-06 09:11 -50.21800 137.77474 17858 ft 318 kts 216°
2026-05-06 09:12 -50.23581 137.75474 17852 ft 313 kts 207°
2026-05-06 09:12 -50.25565 137.74118 17853 ft 312 kts 197°
2026-05-06 09:12 -50.27700 137.73511 17853 ft 314 kts 186°
2026-05-06 09:12 -50.29901 137.73732 17853 ft 320 kts 175°
2026-05-06 09:13 -50.32051 137.74825 17852 ft 331 kts 163°
2026-05-06 09:13 -50.34034 137.76815 17848 ft 347 kts 150°
2026-05-06 09:13 -50.35699 137.79697 17847 ft 367 kts 136°
2026-05-06 09:13 -50.36915 137.83322 17848 ft 380 kts 128°
2026-05-06 09:14 -50.38167 137.86849 17851 ft 370 kts 136°
2026-05-06 09:14 -50.39645 137.90098 17848 ft 364 kts 139°
2026-05-06 09:14 -50.41207 137.93210 17837 ft 361 kts 141°
2026-05-06 09:14 -50.42824 137.96205 17837 ft 359 kts 143°
2026-05-06 09:15 -50.44484 137.99136 17842 ft 362 kts 143°
2026-05-06 09:15 -50.46190 138.02071 17838 ft 365 kts 143°
2026-05-06 09:15 -50.47909 138.05015 17831 ft 366 kts 143°
2026-05-06 09:15 -50.49632 138.07976 17832 ft 366 kts 143°
2026-05-06 09:16 -50.51343 138.10932 17830 ft 366 kts 143°
2026-05-06 09:16 -50.53035 138.13867 17817 ft 366 kts 144°
2026-05-06 09:16 -50.54733 138.16829 17829 ft 362 kts 144°
2026-05-06 09:16 -50.56414 138.19775 17828 ft 361 kts 144°
2026-05-06 09:17 -50.58088 138.22709 17831 ft 360 kts 144°
2026-05-06 09:17 -50.59763 138.25641 17812 ft 360 kts 144°
2026-05-06 09:17 -50.61437 138.28573 17836 ft 362 kts 143°
2026-05-06 09:17 -50.63135 138.31539 17817 ft 366 kts 143°
2026-05-06 09:18 -50.64846 138.34535 17812 ft 368 kts 143°
2026-05-06 09:18 -50.66555 138.37540 17812 ft 368 kts 143°
2026-05-06 09:18 -50.68264 138.40554 17808 ft 368 kts 143°
2026-05-06 09:18 -50.69967 138.43563 17812 ft 368 kts 143°
2026-05-06 09:19 -50.71674 138.46581 17806 ft 368 kts 143°
2026-05-06 09:19 -50.73379 138.49597 17812 ft 368 kts 143°
2026-05-06 09:19 -50.75084 138.52616 17802 ft 368 kts 143°
2026-05-06 09:19 -50.76791 138.55639 17800 ft 368 kts 143°
2026-05-06 09:20 -50.78477 138.58627 17840 ft 369 kts 142°
2026-05-06 09:20 -50.80200 138.61676 17803 ft 374 kts 142°
2026-05-06 09:20 -50.81944 138.64765 17794 ft 377 kts 142°
2026-05-06 09:20 -50.83687 138.67867 17795 ft 378 kts 141°
2026-05-06 09:21 -50.85430 138.70979 17794 ft 377 kts 141°
2026-05-06 09:21 -50.87173 138.74097 17796 ft 377 kts 141°
2026-05-06 09:21 -50.88912 138.77209 17788 ft 377 kts 141°
2026-05-06 09:21 -50.90648 138.80319 17788 ft 377 kts 141°
2026-05-06 09:22 -50.92385 138.83429 17788 ft 377 kts 141°
2026-05-06 09:22 -50.94121 138.86543 17788 ft 377 kts 141°
2026-05-06 09:22 -50.95861 138.89666 17816 ft 377 kts 141°
2026-05-06 09:22 -50.97609 138.92800 17776 ft 382 kts 141°
2026-05-06 09:23 -50.99373 138.95966 17781 ft 384 kts 141°
2026-05-06 09:23 -51.01139 138.99148 17778 ft 384 kts 141°
2026-05-06 09:23 -51.02884 139.02301 17788 ft 384 kts 141°
2026-05-06 09:23 -51.04650 139.05497 17785 ft 384 kts 140°
2026-05-06 09:24 -51.06417 139.08696 17785 ft 384 kts 141°
2026-05-06 09:24 -51.08180 139.11893 17789 ft 384 kts 141°
2026-05-06 09:24 -51.09940 139.15086 17777 ft 384 kts 141°
2026-05-06 09:24 -51.11703 139.18286 17774 ft 384 kts 140°
2026-05-06 09:25 -51.12871 139.20409 17777 ft 384 kts 141°
2026-05-06 09:25 -51.14629 139.23607 17770 ft 384 kts 141°
2026-05-06 09:25 -51.16388 139.26812 17762 ft 384 kts 141°
2026-05-06 09:25 -51.18712 139.31050 17758 ft 384 kts 140°
2026-05-06 09:26 -51.19898 139.33217 17770 ft 384 kts 140°
2026-05-06 09:26 -51.22219 139.37462 17772 ft 383 kts 140°
2026-05-06 09:26 -51.23972 139.40673 17750 ft 383 kts 140°
2026-05-06 09:26 -51.25159 139.42850 17759 ft 383 kts 140°
2026-05-06 09:27 -51.26887 139.46020 17757 ft 383 kts 140°
2026-05-06 09:27 -51.28635 139.49233 17765 ft 383 kts 140°
2026-05-06 09:27 -51.30383 139.52450 17800 ft 383 kts 140°
2026-05-06 09:27 -51.32142 139.55683 17763 ft 388 kts 139°
2026-05-06 09:28 -51.33923 139.58956 17753 ft 392 kts 139°
2026-05-06 09:28 -51.35714 139.62260 17754 ft 393 kts 139°
2026-05-06 09:28 -51.37506 139.65578 17740 ft 393 kts 139°
2026-05-06 09:28 -51.39294 139.68895 17741 ft 393 kts 139°
2026-05-06 09:29 -51.41050 139.72257 17739 ft 397 kts 135°
2026-05-06 09:29 -51.42641 139.75897 17745 ft 400 kts 132°
2026-05-06 09:29 -51.44167 139.79633 17737 ft 401 kts 131°
2026-05-06 09:29 -51.45654 139.83420 17735 ft 402 kts 130°
2026-05-06 09:30 -51.47123 139.87241 17776 ft 402 kts 129°
2026-05-06 09:30 -51.48578 139.91044 17741 ft 406 kts 128°
2026-05-06 09:30 -51.50058 139.94917 17728 ft 408 kts 128°
2026-05-06 09:30 -51.51547 139.98812 17729 ft 409 kts 129°
2026-05-06 09:31 -51.53037 140.02705 17730 ft 409 kts 129°
2026-05-06 09:31 -51.54525 140.06594 17727 ft 408 kts 129°
2026-05-06 09:31 -51.56015 140.10485 17722 ft 408 kts 129°
2026-05-06 09:31 -51.57505 140.14379 17722 ft 408 kts 129°
2026-05-06 09:32 -51.58991 140.18266 17722 ft 408 kts 129°
2026-05-06 09:32 -51.60480 140.22166 17722 ft 409 kts 129°
2026-05-06 09:32 -51.61966 140.26061 17727 ft 409 kts 128°
2026-05-06 09:32 -51.63459 140.29979 17713 ft 411 kts 128°
2026-05-06 09:33 -51.64953 140.33908 17716 ft 412 kts 128°
2026-05-06 09:33 -51.66451 140.37860 17716 ft 413 kts 128°
2026-05-06 09:33 -51.67945 140.41808 17707 ft 413 kts 128°
2026-05-06 09:33 -51.69419 140.45707 17708 ft 413 kts 128°
2026-05-06 09:34 -51.70910 140.49659 17707 ft 413 kts 127°
2026-05-06 09:34 -51.72489 140.53578 17709 ft 408 kts 134°
2026-05-06 09:34 -51.74387 140.56788 17699 ft 396 kts 147°
2026-05-06 09:34 -51.76694 140.59088 17699 ft 383 kts 163°
2026-05-06 09:35 -51.79218 140.60206 17709 ft 373 kts 179°
2026-05-06 09:35 -51.81787 140.60103 17698 ft 366 kts 195°
2026-05-06 09:35 -51.84179 140.58853 17698 ft 359 kts 210°
2026-05-06 09:35 -51.86232 140.56620 17700 ft 355 kts 224°
2026-05-06 09:36 -51.87826 140.53596 17698 ft 354 kts 238°
2026-05-06 09:36 -51.89038 140.50137 17699 ft 354 kts 239°
2026-05-06 09:36 -51.90447 140.46864 17697 ft 354 kts 231°
2026-05-06 09:36 -51.92113 140.43919 17700 ft 355 kts 227°
2026-05-06 09:37 -51.93882 140.41130 17701 ft 355 kts 224°
2026-05-06 09:37 -51.95719 140.38445 17699 ft 356 kts 223°
2026-05-06 09:37 -51.97573 140.35844 17701 ft 356 kts 222°
2026-05-06 09:37 -51.99460 140.33242 17700 ft 356 kts 222°
2026-05-06 09:38 -52.01351 140.30640 17695 ft 356 kts 222°
2026-05-06 09:38 -52.03235 140.28036 17700 ft 356 kts 222°
2026-05-06 09:38 -52.05115 140.25421 17695 ft 354 kts 222°
2026-05-06 09:38 -52.06976 140.22819 17693 ft 353 kts 222°
2026-05-06 09:39 -52.08834 140.20212 17692 ft 352 kts 222°
2026-05-06 09:39 -52.10688 140.17601 17692 ft 352 kts 222°
2026-05-06 09:39 -52.12538 140.14993 17686 ft 352 kts 222°
2026-05-06 09:39 -52.14392 140.12376 17690 ft 352 kts 222°
2026-05-06 09:40 -52.16242 140.09761 17693 ft 352 kts 222°
2026-05-06 09:40 -52.18069 140.07176 17690 ft 352 kts 222°
2026-05-06 09:40 -52.21769 140.01934 17691 ft 352 kts 223°
2026-05-06 09:41 -52.23616 139.99314 17690 ft 352 kts 223°
2026-05-06 09:41 -52.25461 139.96693 17693 ft 350 kts 222°
2026-05-06 09:41 -52.27300 139.94079 17691 ft 349 kts 222°
2026-05-06 09:41 -52.29128 139.91476 17697 ft 348 kts 222°
2026-05-06 09:42 -52.30954 139.88874 17695 ft 348 kts 222°
2026-05-06 09:42 -52.32779 139.86269 17692 ft 348 kts 222°
2026-05-06 09:42 -52.34604 139.83662 17692 ft 348 kts 222°
2026-05-06 09:42 -52.36427 139.81054 17696 ft 348 kts 222°
2026-05-06 09:43 -52.38230 139.78472 17685 ft 348 kts 222°
2026-05-06 09:43 -52.40050 139.75863 17687 ft 348 kts 222°
2026-05-06 09:43 -52.41871 139.73249 17690 ft 348 kts 222°
2026-05-06 09:43 -52.43696 139.70628 17683 ft 348 kts 221°
2026-05-06 09:44 -52.45508 139.68020 17690 ft 344 kts 221°
2026-05-06 09:44 -52.47302 139.65438 17695 ft 341 kts 221°
2026-05-06 09:44 -52.49082 139.62873 17693 ft 341 kts 221°
2026-05-06 09:44 -52.50859 139.60307 17694 ft 340 kts 221°
2026-05-06 09:45 -52.52639 139.57736 17695 ft 340 kts 221°
2026-05-06 09:45 -52.54413 139.55169 17696 ft 340 kts 221°
2026-05-06 09:45 -52.56193 139.52591 17691 ft 340 kts 221°
2026-05-06 09:45 -52.57971 139.50014 17678 ft 340 kts 221°
2026-05-06 09:46 -52.59746 139.47436 17680 ft 340 kts 221°
2026-05-06 09:46 -52.61500 139.44888 17681 ft 340 kts 221°
2026-05-06 09:46 -52.63275 139.42306 17693 ft 340 kts 221°
2026-05-06 09:46 -52.65044 139.39729 17680 ft 337 kts 220°
2026-05-06 09:47 -52.66791 139.37181 17694 ft 334 kts 220°
2026-05-06 09:47 -52.68525 139.34650 17691 ft 333 kts 220°
2026-05-06 09:47 -52.70259 139.32117 17683 ft 333 kts 220°
2026-05-06 09:47 -52.71994 139.29580 17696 ft 333 kts 220°
2026-05-06 09:48 -52.73724 139.27047 17693 ft 332 kts 220°
2026-05-06 09:48 -52.75451 139.24515 17688 ft 332 kts 220°
2026-05-06 09:48 -52.77182 139.21975 17682 ft 332 kts 220°
2026-05-06 09:48 -52.78910 139.19436 17686 ft 332 kts 220°
2026-05-06 09:49 -52.80633 139.16900 17677 ft 332 kts 220°
2026-05-06 09:49 -52.82338 139.14390 17678 ft 332 kts 220°
2026-05-06 09:49 -52.84067 139.11841 17677 ft 331 kts 219°
2026-05-06 09:49 -52.85772 139.09323 17679 ft 326 kts 219°
2026-05-06 09:50 -52.87460 139.06828 17672 ft 324 kts 219°
2026-05-06 09:50 -52.89138 139.04346 17672 ft 323 kts 219°
2026-05-06 09:50 -52.90815 139.01864 17673 ft 323 kts 219°
2026-05-06 09:50 -52.92468 138.99415 17668 ft 323 kts 219°
2026-05-06 09:51 -52.94145 138.96928 17666 ft 323 kts 219°
2026-05-06 09:51 -52.95817 138.94445 17666 ft 323 kts 219°
2026-05-06 09:51 -52.97490 138.91957 17667 ft 322 kts 219°
2026-05-06 09:51 -52.99159 138.89472 17662 ft 322 kts 219°
2026-05-06 09:52 -53.00827 138.86986 17667 ft 322 kts 219°
2026-05-06 09:52 -53.02579 138.84373 17667 ft 322 kts 219°
2026-05-06 09:52 -53.04244 138.81885 17663 ft 320 kts 219°
2026-05-06 09:52 -53.05888 138.79426 17666 ft 317 kts 219°
2026-05-06 09:53 -53.07525 138.76974 17663 ft 315 kts 219°
2026-05-06 09:53 -53.10626 138.72327 17660 ft 315 kts 219°
2026-05-06 09:53 -53.13884 138.67434 17658 ft 315 kts 219°
2026-05-06 09:53 -53.17099 138.62595 17662 ft 315 kts 219°
2026-05-06 09:54 -53.20358 138.57679 17661 ft 315 kts 219°
2026-05-06 09:54 -53.23598 138.52780 17645 ft 314 kts 219°
2026-05-06 09:54 -53.26794 138.47933 17662 ft 307 kts 219°
2026-05-06 09:54 -53.29955 138.43134 17658 ft 307 kts 219°
2026-05-06 09:55 -53.33111 138.38336 17656 ft 307 kts 219°
2026-05-06 09:55 -53.36268 138.33524 17656 ft 307 kts 219°
2026-05-06 09:55 -53.39423 138.28704 17654 ft 307 kts 219°
2026-05-06 09:55 -53.42580 138.23871 17653 ft 307 kts 219°
2026-05-06 09:56 -53.45668 138.19130 17648 ft 303 kts 219°
2026-05-06 09:56 -53.48769 138.14361 17648 ft 301 kts 219°
2026-05-06 09:56 -53.51858 138.09604 17648 ft 302 kts 219°
2026-05-06 09:56 -53.55204 138.04439 17641 ft 302 kts 219°
2026-05-06 09:57 -53.61383 137.94869 17641 ft 301 kts 219°
2026-05-06 09:57 -53.67549 137.85282 17633 ft 302 kts 220°
2026-05-06 09:57 -53.73696 137.75677 17623 ft 299 kts 219°
2026-05-06 09:57 -53.79800 137.66107 17616 ft 300 kts 219°
2026-05-06 09:58 -53.85912 137.56480 17625 ft 299 kts 219°
2026-05-06 09:58 -53.90795 137.44982 17616 ft 317 kts 240°
2026-05-06 09:58 -53.93150 137.30366 17625 ft 323 kts 245°
2026-05-06 09:58 -53.95386 137.15552 17626 ft 323 kts 245°
2026-05-06 09:59 -53.97668 137.00747 17616 ft 324 kts 245°
2026-05-06 09:59 -53.99901 136.86106 17627 ft 324 kts 245°
2026-05-06 09:59 -54.02145 136.71251 17619 ft 324 kts 246°
2026-05-06 09:59 -54.04370 136.56388 17624 ft 324 kts 246°
2026-05-06 10:00 -54.06588 136.41447 17625 ft 325 kts 246°
2026-05-06 10:00 -54.08790 136.26460 17623 ft 328 kts 247°
2026-05-06 10:00 -54.10986 136.11345 17627 ft 328 kts 247°
2026-05-06 10:00 -54.12774 135.95996 17606 ft 344 kts 260°
2026-05-06 10:01 -54.09839 135.79521 17635 ft 373 kts 279°
2026-05-06 10:01 -54.05787 135.63261 17613 ft 373 kts 279°
2026-05-06 10:01 -54.01851 135.46941 17636 ft 372 kts 279°
2026-05-06 10:01 -53.97958 135.30863 17639 ft 373 kts 279°
2026-05-06 10:02 -53.93989 135.14611 17612 ft 373 kts 279°
2026-05-06 10:02 -53.89988 134.98347 17655 ft 373 kts 279°
2026-05-06 10:02 -53.84849 134.82604 17664 ft 390 kts 290°
2026-05-06 10:02 -53.78759 134.67366 17668 ft 391 kts 291°
2026-05-06 10:03 -53.72683 134.52137 17675 ft 390 kts 290°
2026-05-06 10:03 -53.66617 134.36971 17686 ft 390 kts 291°
2026-05-06 10:03 -53.60530 134.21850 17692 ft 390 kts 291°
2026-05-06 10:03 -53.54405 134.06729 17692 ft 391 kts 291°
2026-05-06 10:04 -53.45990 133.93917 17675 ft 430 kts 316°
2026-05-06 10:04 -53.35621 133.83730 17710 ft 432 kts 317°
2026-05-06 10:04 -53.25297 133.73452 17721 ft 431 kts 316°
2026-05-06 10:04 -53.15033 133.63209 17729 ft 429 kts 317°
2026-05-06 10:05 -53.04771 133.53028 17740 ft 429 kts 317°
2026-05-06 10:05 -52.94525 133.42929 17753 ft 426 kts 317°
2026-05-06 10:05 -52.84327 133.32926 17776 ft 426 kts 317°
2026-05-06 10:05 -52.74017 133.22862 17775 ft 429 kts 317°
2026-05-06 10:06 -52.63863 133.13029 17776 ft 428 kts 317°
2026-05-06 10:06 -52.53580 133.03108 17755 ft 428 kts 318°
2026-05-06 10:06 -52.43324 132.93269 17803 ft 427 kts 318°
2026-05-06 10:06 -52.33049 132.83466 17816 ft 427 kts 318°
2026-05-06 10:07 -52.22761 132.73706 17825 ft 427 kts 318°
2026-05-06 10:07 -52.11635 132.66244 17833 ft 470 kts 353°
2026-05-06 10:07 -52.00637 132.77517 17850 ft 490 kts 58°
2026-05-06 10:07 -51.92818 132.95682 17844 ft 493 kts 55°
2026-05-06 10:08 -51.84164 133.12840 17855 ft 492 kts 52°
2026-05-06 10:08 -51.75394 133.29864 17861 ft 493 kts 52°
2026-05-06 10:08 -51.66603 133.46904 17862 ft 493 kts 52°
2026-05-06 10:08 -51.58799 133.64901 17865 ft 490 kts 60°
2026-05-06 10:09 -51.51274 133.83177 17869 ft 490 kts 60°
2026-05-06 10:09 -51.43691 134.01337 17873 ft 489 kts 60°
2026-05-06 10:09 -51.36093 134.19409 17858 ft 490 kts 60°
2026-05-06 10:09 -51.28522 134.37262 17868 ft 490 kts 61°
2026-05-06 10:10 -51.20871 134.55218 17869 ft 488 kts 62°
2026-05-06 10:10 -51.14035 134.73859 17879 ft 484 kts 66°
2026-05-06 10:10 -51.07264 134.92364 17875 ft 483 kts 65°
2026-05-06 10:10 -51.00399 135.10728 17902 ft 483 kts 65°
2026-05-06 10:11 -50.93519 135.29006 17884 ft 482 kts 65°
2026-05-06 10:11 -50.88957 135.41066 17882 ft 482 kts 65°
2026-05-06 10:11 -50.79784 135.65137 17888 ft 480 kts 65°
2026-05-06 10:11 -50.72853 135.83184 17889 ft 480 kts 65°
2026-05-06 10:12 -50.65896 136.01169 17890 ft 480 kts 65°
2026-05-06 10:12 -50.58925 136.19067 17906 ft 480 kts 65°
2026-05-06 10:12 -50.51969 136.36948 17890 ft 476 kts 68°
2026-05-06 10:12 -50.46127 136.55440 17890 ft 473 kts 72°
2026-05-06 10:13 -50.42230 136.67686 17890 ft 473 kts 71°
2026-05-06 10:13 -50.36229 136.86025 17893 ft 473 kts 71°
2026-05-06 10:13 -50.30187 137.04366 17892 ft 474 kts 71°
2026-05-06 10:13 -50.24230 137.22711 17883 ft 466 kts 79°
2026-05-06 10:14 -50.25941 137.39813 17897 ft 380 kts 136°
2026-05-06 10:14 -50.32101 137.53066 17880 ft 375 kts 139°
2026-05-06 10:14 -50.38182 137.66331 17879 ft 375 kts 139°
2026-05-06 10:14 -50.44187 137.79702 17867 ft 375 kts 138°
2026-05-06 10:15 -50.50173 137.93092 17857 ft 374 kts 138°
2026-05-06 10:15 -50.56128 138.06466 17854 ft 373 kts 138°
2026-05-06 10:15 -50.62066 138.19871 17843 ft 373 kts 138°
2026-05-06 10:15 -50.67999 138.33337 17835 ft 373 kts 137°
2026-05-06 10:16 -50.73843 138.46671 17825 ft 373 kts 137°
2026-05-06 10:16 -50.79736 138.60180 17826 ft 376 kts 136°
2026-05-06 10:16 -50.85708 138.73936 17815 ft 379 kts 136°
2026-05-06 10:16 -50.92633 138.85541 17803 ft 341 kts 165°
2026-05-06 10:17 -51.01232 138.84405 17798 ft 318 kts 211°
2026-05-06 10:17 -51.05718 138.72010 17788 ft 342 kts 243°
2026-05-06 10:17 -51.10479 138.59659 17804 ft 325 kts 225°
2026-05-06 10:17 -51.16379 138.48743 17804 ft 325 kts 224°
2026-05-06 10:18 -51.22238 138.37775 17804 ft 325 kts 224°
2026-05-06 10:18 -51.27964 138.26927 17806 ft 314 kts 223°
2026-05-06 10:18 -51.33604 138.16243 17802 ft 314 kts 223°
2026-05-06 10:18 -51.39160 138.05659 17799 ft 314 kts 223°
2026-05-06 10:19 -51.44753 137.94954 17802 ft 312 kts 224°
2026-05-06 10:19 -51.50334 137.84235 17803 ft 312 kts 224°
2026-05-06 10:19 -51.55893 137.73510 17797 ft 312 kts 224°
2026-05-06 10:19 -51.61441 137.62759 17789 ft 314 kts 225°
2026-05-06 10:20 -51.67023 137.51896 17789 ft 314 kts 225°
2026-05-06 10:20 -51.72589 137.41019 17789 ft 314 kts 225°
2026-05-06 10:20 -51.78162 137.30084 17786 ft 316 kts 225°
2026-05-06 10:20 -51.83742 137.19085 17784 ft 316 kts 225°
2026-05-06 10:21 -51.89307 137.08068 17775 ft 316 kts 225°
2026-05-06 10:21 -51.94860 136.97028 17781 ft 316 kts 226°
2026-05-06 10:21 -52.00404 136.85957 17776 ft 316 kts 226°
2026-05-06 10:21 -52.05881 136.74975 17773 ft 316 kts 226°
2026-05-06 10:22 -52.11401 136.63856 17769 ft 317 kts 226°
2026-05-06 10:22 -52.16938 136.52654 17765 ft 317 kts 226°
2026-05-06 10:22 -52.22462 136.41430 17763 ft 317 kts 226°
2026-05-06 10:22 -52.27966 136.30198 17758 ft 318 kts 226°
2026-05-06 10:23 -52.33473 136.18909 17752 ft 318 kts 227°
2026-05-06 10:23 -52.38970 136.07589 17752 ft 318 kts 227°
2026-05-06 10:23 -52.44463 135.96229 17746 ft 318 kts 227°
2026-05-06 10:23 -52.49936 135.84859 17742 ft 318 kts 227°
2026-05-06 10:24 -52.55394 135.73468 17737 ft 318 kts 227°
2026-05-06 10:24 -52.60864 135.62002 17734 ft 317 kts 227°
2026-05-06 10:24 -52.66298 135.50558 17735 ft 317 kts 228°
2026-05-06 10:24 -52.71736 135.39054 17730 ft 317 kts 228°
2026-05-06 10:25 -52.77073 135.27714 17725 ft 317 kts 228°
2026-05-06 10:25 -52.82488 135.16157 17722 ft 317 kts 228°
2026-05-06 10:25 -52.87877 135.04601 17722 ft 317 kts 228°
2026-05-06 10:25 -52.93271 134.92980 17719 ft 317 kts 228°
2026-05-06 10:26 -52.98647 134.81348 17716 ft 317 kts 229°
2026-05-06 10:26 -53.04008 134.69693 17713 ft 317 kts 229°
2026-05-06 10:26 -53.09349 134.58028 17710 ft 317 kts 229°
2026-05-06 10:26 -53.14683 134.46322 17705 ft 317 kts 229°
2026-05-06 10:27 -53.20002 134.34598 17707 ft 317 kts 229°
2026-05-06 10:27 -53.25315 134.22832 17704 ft 317 kts 229°
2026-05-06 10:27 -53.30609 134.11050 17695 ft 317 kts 230°
2026-05-06 10:27 -53.36006 133.99649 17692 ft 315 kts 221°
2026-05-06 10:28 -53.44312 133.95617 17692 ft 342 kts 178°
2026-05-06 10:28 -53.51442 134.07883 17689 ft 434 kts 117°
2026-05-06 10:28 -53.56854 134.24735 17684 ft 399 kts 141°
2026-05-06 10:28 -53.63848 134.39150 17675 ft 395 kts 143°
2026-05-06 10:29 -53.70824 134.53584 17668 ft 397 kts 142°
2026-05-06 10:29 -53.77749 134.68117 17657 ft 397 kts 142°
2026-05-06 10:29 -53.84647 134.82675 17650 ft 395 kts 142°
2026-05-06 10:29 -53.91510 134.97229 17646 ft 395 kts 142°
2026-05-06 10:30 -53.98348 135.11819 17659 ft 395 kts 142°
2026-05-06 10:30 -54.05185 135.26497 17631 ft 395 kts 142°
2026-05-06 10:30 -54.11906 135.41009 17620 ft 395 kts 142°
2026-05-06 10:30 -54.17435 135.57642 17620 ft 449 kts 107°
2026-05-06 10:31 -54.15172 135.79595 17608 ft 479 kts 83°
2026-05-06 10:31 -54.11778 136.01570 17612 ft 476 kts 85°
2026-05-06 10:31 -54.08641 136.23404 17610 ft 475 kts 85°
2026-05-06 10:31 -54.05447 136.45358 17613 ft 475 kts 85°
2026-05-06 10:32 -54.02223 136.67156 17612 ft 474 kts 85°
2026-05-06 10:32 -53.98961 136.88918 17611 ft 474 kts 85°
2026-05-06 10:32 -53.95663 137.10624 17611 ft 475 kts 85°
2026-05-06 10:32 -53.92373 137.31976 17619 ft 474 kts 85°
2026-05-06 10:33 -53.89007 137.53573 17622 ft 473 kts 86°
2026-05-06 10:33 -53.83355 137.74006 17612 ft 505 kts 52°
2026-05-06 10:33 -53.73012 137.90344 17618 ft 509 kts 45°
2026-05-06 10:33 -53.62612 138.06523 17625 ft 502 kts 46°
2026-05-06 10:34 -53.52447 138.22506 17630 ft 500 kts 46°
2026-05-06 10:34 -53.42277 138.38365 17641 ft 493 kts 46°
2026-05-06 10:34 -53.32243 138.53903 17649 ft 491 kts 46°
2026-05-06 10:34 -53.22173 138.69382 17664 ft 492 kts 46°
2026-05-06 10:35 -53.12042 138.84873 17660 ft 493 kts 46°
2026-05-06 10:35 -53.02057 139.00030 17667 ft 487 kts 45°
2026-05-06 10:35 -52.92027 139.15156 17671 ft 486 kts 45°
2026-05-06 10:35 -52.82038 139.30117 17673 ft 477 kts 44°
2026-05-06 10:36 -52.72184 139.44789 17676 ft 476 kts 44°
2026-05-06 10:36 -52.62396 139.59269 17683 ft 466 kts 43°
2026-05-06 10:36 -52.52735 139.73471 17680 ft 465 kts 42°
2026-05-06 10:36 -52.43118 139.87524 17690 ft 455 kts 41°
2026-05-06 10:37 -52.33687 140.01216 17696 ft 453 kts 41°
2026-05-06 10:37 -52.24264 140.14816 17695 ft 448 kts 40°
2026-05-06 10:37 -52.14917 140.28232 17697 ft 447 kts 40°
2026-05-06 10:37 -52.05572 140.41566 17705 ft 447 kts 40°
2026-05-06 10:38 -51.96316 140.54698 17704 ft 446 kts 40°
2026-05-06 10:38 -51.87170 140.67603 17708 ft 433 kts 40°
2026-05-06 10:38 -51.78074 140.80362 17709 ft 433 kts 39°
2026-05-06 10:38 -51.68755 140.92733 17702 ft 433 kts 37°
2026-05-06 10:39 -51.59501 141.04838 17717 ft 427 kts 37°
2026-05-06 10:39 -51.50272 141.16916 17716 ft 427 kts 37°
2026-05-06 10:39 -51.41101 141.28851 17724 ft 423 kts 37°
2026-05-06 10:39 -51.31924 141.40727 17724 ft 423 kts 37°
2026-05-06 10:40 -51.22799 141.52476 17730 ft 419 kts 37°
2026-05-06 10:40 -51.13692 141.64149 17730 ft 424 kts 37°
2026-05-06 10:40 -51.04504 141.75853 17731 ft 420 kts 37°
2026-05-06 10:40 -50.95363 141.87430 17733 ft 420 kts 37°
2026-05-06 10:41 -50.86229 141.98951 17735 ft 416 kts 36°
2026-05-06 10:41 -50.77161 142.10324 17744 ft 415 kts 36°
2026-05-06 10:41 -50.68226 142.21478 17741 ft 414 kts 36°
2026-05-06 10:41 -50.59227 142.32656 17746 ft 411 kts 36°
2026-05-06 10:42 -50.50212 142.43794 17738 ft 411 kts 35°
2026-05-06 10:42 -50.41234 142.54832 17749 ft 408 kts 35°
2026-05-06 10:42 -50.32277 142.65788 17749 ft 408 kts 35°
2026-05-06 10:42 -50.23331 142.76682 17750 ft 406 kts 35°
2026-05-06 10:43 -50.14398 142.87503 17751 ft 406 kts 35°
2026-05-06 10:43 -50.05469 142.98271 17760 ft 404 kts 34°
2026-05-06 10:43 -49.96589 143.08925 17758 ft 404 kts 34°
2026-05-06 10:44 -49.78879 143.30024 17760 ft 404 kts 34°
2026-05-06 10:44 -49.69969 143.40565 17760 ft 403 kts 34°
2026-05-06 10:44 -49.61069 143.51042 17763 ft 402 kts 34°
2026-05-06 10:44 -49.52169 143.61471 17764 ft 401 kts 33°
2026-05-06 10:45 -49.43294 143.71822 17756 ft 400 kts 33°
2026-05-06 10:45 -49.34365 143.82193 17766 ft 402 kts 33°
2026-05-06 10:45 -49.25441 143.92500 17769 ft 401 kts 33°
2026-05-06 10:45 -49.16522 144.02756 17766 ft 401 kts 33°
2026-05-06 10:46 -49.07615 144.12954 17772 ft 399 kts 33°
2026-05-06 10:46 -48.98723 144.23087 17769 ft 399 kts 33°
2026-05-06 10:46 -48.89831 144.33174 17771 ft 398 kts 33°
2026-05-06 10:46 -48.80924 144.43232 17771 ft 398 kts 33°
2026-05-06 10:47 -48.72024 144.53237 17777 ft 398 kts 33°
2026-05-06 10:47 -48.63127 144.63194 17777 ft 398 kts 33°
2026-05-06 10:47 -48.54210 144.73129 17782 ft 398 kts 32°
2026-05-06 10:47 -48.45291 144.83021 17784 ft 398 kts 32°
2026-05-06 10:48 -48.36370 144.92872 17780 ft 398 kts 32°
2026-05-06 10:48 -48.27440 145.02689 17783 ft 397 kts 32°
2026-05-06 10:48 -48.18629 145.12331 17772 ft 397 kts 32°
2026-05-06 10:48 -48.09581 145.22191 17784 ft 397 kts 32°
2026-05-06 10:49 -48.00772 145.31748 17789 ft 397 kts 32°
2026-05-06 10:49 -47.91828 145.41409 17792 ft 397 kts 32°
2026-05-06 10:49 -47.82881 145.51031 17791 ft 397 kts 32°
2026-05-06 10:49 -47.73941 145.60605 17792 ft 396 kts 32°
2026-05-06 10:50 -47.64977 145.70163 17788 ft 397 kts 32°
2026-05-06 10:50 -47.56009 145.79684 17794 ft 397 kts 32°
2026-05-06 10:50 -47.47017 145.89190 17796 ft 397 kts 32°
2026-05-06 10:50 -47.41558 146.02514 17799 ft 408 kts 96°
2026-05-06 10:51 -47.46647 146.17230 17794 ft 408 kts 109°
2026-05-06 10:51 -47.48592 146.33741 17787 ft 409 kts 95°
2026-05-06 10:51 -47.49779 146.50483 17781 ft 410 kts 95°
2026-05-06 10:51 -47.51074 146.67237 17781 ft 410 kts 95°
2026-05-06 10:52 -47.52355 146.84032 17778 ft 410 kts 95°
2026-05-06 10:52 -47.53619 147.01041 17770 ft 423 kts 93°
2026-05-06 10:52 -47.54861 147.18358 17769 ft 422 kts 90°
2026-05-06 10:52 -47.54950 147.35634 17774 ft 420 kts 85°
2026-05-06 10:53 -47.54789 147.53037 17772 ft 425 kts 84°
2026-05-06 10:53 -47.54639 147.70524 17768 ft 425 kts 84°
2026-05-06 10:53 -47.54458 147.88128 17757 ft 429 kts 80°
2026-05-06 10:53 -47.54250 148.05841 17765 ft 431 kts 80°
2026-05-06 10:54 -47.54017 148.23574 17761 ft 430 kts 79°
2026-05-06 10:54 -47.53776 148.40009 17755 ft 430 kts 79°
2026-05-06 10:54 -47.53492 148.57704 17759 ft 428 kts 78°
2026-05-06 10:54 -47.51665 148.74548 17757 ft 405 kts 61°
2026-05-06 10:55 -47.48082 148.90277 17755 ft 391 kts 59°
2026-05-06 10:55 -47.47115 148.94659 18299 ft 350 kts 58°
2026-05-06 10:55 -47.46959 148.95401 18478 ft 340 kts 58°
2026-05-06 10:56 -47.46460 148.97903 19092 ft 308 kts 57°
2026-05-06 10:56 -47.46174 148.99417 19265 ft 297 kts 57°